Simultaneous Nadir Overpasses (SNOs) Predictions

Prediction of SNOs between AQUA and GOES-15 Satellite Orbit:

Table of predicted SNOs for the next 14.0 days since TLE Epoch: 12/20/2019
Index Date Time (AQUA) AQUA Lat,Lon GOES-15 Lat,Lon Distance(km) Time Diff (sec)
1 12/21/2019 22:10:05 -0.12,-128.65 0.04,-128.04 70.48 80
2 12/23/2019 21:57:54 0.51,-125.69 0.03,-128.09 272.22 80
3 12/24/2019 10:19:10 0.56,-130.85 -0.04,-128.14 308.99 80
4 12/26/2019 10:06:59 -0.08,-127.90 -0.03,-128.19 33.14 80
5 12/28/2019 09:54:48 -0.72,-124.95 -0.03,-128.24 374.86 80
6 12/28/2019 22:16:13 -0.34,-130.15 0.04,-128.22 218.14 80
7 12/30/2019 22:04:01 0.24,-127.18 0.04,-128.27 123.35 80
8 12/31/2019 10:25:17 0.81,-132.34 -0.05,-128.31 458.30 80
9 01/01/2020 21:51:50 0.89,-124.23 0.04,-128.31 464.57 80
10 01/02/2020 10:13:06 0.16,-129.39 -0.05,-128.36 117.04 80




NCC Satellite Simultaneous Nadir Overpasses (SNOs) Prediction Service
